Sitka, Alaska, United States (99835)
Lat: 57.05N, Lon: 135.33W
Wx Zone: AKZ023
Local Info
Past Weather Observations for Monday, February 23, 2015

NOTE: This archive is for the closest National Weather Service station to Sitka. Information may differ from the station used for current weather conditions.

Click here for Long-term Archive

Time Weather Temperature Dewpoint Humidity Pressure Winds Precip Visibility
23:53
Overcast
41°F / 5°C 39°F / 4°C 93% 30.36 in
(1028 mb)
Calm - 10SM
23:41
Overcast
43°F / 6°C 39°F / 4°C 87% 30.36 in
(1028 mb)
Calm - 10SM
23:20
Overcast
43°F / 6°C 39°F / 4°C 87% 30.36 in
(1028 mb)
N 3.5 mph
(N 6 kph)
- 10SM
22:53
Overcast
43°F / 6°C 39°F / 4°C 87% 30.36 in
(1028 mb)
NNW 3.5 mph
(NNW 6 kph)
- 10SM
21:53
Overcast
43°F / 6°C 41°F / 5°C 93% 30.36 in
(1028 mb)
NNW 4.6 mph
(NNW 7 kph)
- 10SM
21:32
Overcast
43°F / 6°C 39°F / 4°C 87% 30.33 in
(1027 mb)
NW 5.8 mph
(NW 9 kph)
- 10SM
20:53
Overcast
43°F / 6°C 41°F / 5°C 93% 30.33 in
(1027 mb)
NW 6.9 mph
(NW 11 kph)
- 10SM
20:22
Overcast
43°F / 6°C 41°F / 5°C 93% 30.33 in
(1027 mb)
NW 8.1 mph
(NW 13 kph)
- 8SM
19:53
Mostly Cloudy
43°F / 6°C 41°F / 5°C 93% 30.33 in
(1027 mb)
NW 9.2 mph
(NW 15 kph)
- 10SM
19:16
Overcast
43°F / 6°C 41°F / 5°C 93% 30.3 in
(1026 mb)
NW 9.2 mph
(NW 15 kph)
- 10SM
18:53
Overcast
43°F / 6°C 43°F / 6°C 100% 30.3 in
(1026 mb)
NW 8.1 mph
(NW 13 kph)
- 10SM
17:53
Mostly Cloudy
43°F / 6°C 41°F / 5°C 93% 30.27 in
(1025 mb)
NW 8.1 mph
(NW 13 kph)
- 10SM
17:14
Overcast
45°F / 7°C 41°F / 5°C 87% 30.27 in
(1025 mb)
NNW 11.5 mph
(NNW 19 kph)
- 10SM
17:00
Overcast
45°F / 7°C 43°F / 6°C 93% 30.27 in
(1025 mb)
NW 11.5 mph
(NW 19 kph)
- 10SM
16:53
Mostly Cloudy
45°F / 7°C 43°F / 6°C 93% 30.27 in
(1025 mb)
NW 9.2 mph
(NW 15 kph)
- 10SM
15:53
Mostly Cloudy
43°F / 6°C 43°F / 6°C 100% 30.27 in
(1025 mb)
SSW 5.8 mph
(SSW 9 kph)
0.06 in
(1.52 mm)
7SM
15:06
Overcast
Light Rain
43°F / 6°C 43°F / 6°C 100% 30.24 in
(1024 mb)
SE 4.6 mph
(SE 7 kph)
0.02 in
(0.51 mm)
5SM
14:53
Overcast
Light Rain
43°F / 6°C 43°F / 6°C 100% 30.24 in
(1024 mb)
SE 6.9 mph
(SE 11 kph)
0.05 in
(1.27 mm)
7SM
14:03
Overcast
Light Rain
45°F / 7°C 43°F / 6°C 93% 30.24 in
(1024 mb)
ESE 5.8 mph
(ESE 9 kph)
0.01 in
(0.25 mm)
7SM
13:53
Overcast
Light Rain
45°F / 7°C 43°F / 6°C 93% 30.24 in
(1024 mb)
SE 5.8 mph
(SE 9 kph)
0.14 in
(3.56 mm)
5SM
12:53
Overcast
Rain
45°F / 7°C 43°F / 6°C 93% 30.24 in
(1024 mb)
SE 8.1 mph
(SE 13 kph)
0.12 in
(3.05 mm)
4SM
11:53
Overcast
Light Rain
45°F / 7°C 43°F / 6°C 93% 30.27 in
(1025 mb)
ESE 5.8 mph
(ESE 9 kph)
0.10 in
(2.54 mm)
5SM
10:53
Overcast
Rain
45°F / 7°C 43°F / 6°C 93% 30.27 in
(1025 mb)
SE 5.8 mph
(SE 9 kph)
0.09 in
(2.29 mm)
5SM
09:53
Overcast
Light Rain
45°F / 7°C 43°F / 6°C 93% 30.27 in
(1025 mb)
ESE 6.9 mph
(ESE 11 kph)
0.06 in
(1.52 mm)
5SM
08:53
Overcast
Rain
45°F / 7°C 43°F / 6°C 93% 30.27 in
(1025 mb)
E 5.8 mph
(E 9 kph)
0.04 in
(1.02 mm)
3SM
07:53
Overcast
45°F / 7°C 41°F / 5°C 87% 30.24 in
(1024 mb)
S 4.6 mph
(S 7 kph)
- 10SM
06:53
Overcast
45°F / 7°C 41°F / 5°C 87% 30.24 in
(1024 mb)
S 10.4 mph
(S 17 kph)
- 10SM
05:53
Overcast
45°F / 7°C 41°F / 5°C 87% 30.24 in
(1024 mb)
SE 6.9 mph
(SE 11 kph)
- 10SM
04:53
Overcast
45°F / 7°C 39°F / 4°C 81% 30.27 in
(1025 mb)
SSE 10.4 mph
(SSE 17 kph)
- 10SM
03:53
Overcast
45°F / 7°C 41°F / 5°C 87% 30.27 in
(1025 mb)
ESE 3.5 mph
(ESE 6 kph)
- 10SM
02:53
Mostly Cloudy
45°F / 7°C 43°F / 6°C 93% 30.3 in
(1026 mb)
SSE 17.3 mph
(SSE 28 kph)
- 10SM
01:53
Overcast
45°F / 7°C 45°F / 7°C 100% 30.3 in
(1026 mb)
SW 16.1 mph
(SW 26 kph)
- 10SM
01:08
Overcast
46°F / 8°C 43°F / 6°C 87% 30.3 in
(1026 mb)
S 20.7 mph
(S 33 kph)
- 10SM
00:53
Overcast
46°F / 8°C 43°F / 6°C 87% 30.3 in
(1026 mb)
SSE 12.7 mph
(SSE 20 kph)
- 10SM
00:08
Overcast
46°F / 8°C 45°F / 7°C 93% 30.3 in
(1026 mb)
SSE 8.1 mph
(SSE 13 kph)
- 10SM
Time Weather Temperature Dewpoint Humidity Pressure Winds Precip Visibility


Weather for websites

WeatherForYou.com, LLC is not responsible for any damages or problems caused by this service. Current weather conditions are obtained from the closest station including government and personal stations which may have varying degrees of accuracy. Weather forecasts are derived from the NOAA NDFD. Like all things, this site belongs to Jesus Christ... He just trusts me to maintain it. If you have any questions or comments email webmaster@weatherforyou.com

Copyright © 2015, WeatherForYou.com LLC. All rights reserved.